[[{"header":{"parameterUnit":"m.s-1","parameterCategory":1,"la1":30.2991,"la2":30.254,"lo1":-89.0895,"lo2":-89.0444,"dy":0.0017,"dx":0.0017,"nx":28,"ny":28,"refTime":"2023-09-22T21:00:00:Z","depth":0,"parameterNumber":2,"parameterNumberName":"U-component_of_WINDS"},"data":[0,0,0,0,0,0,0,0,0,0,0,0,0,0,0,0,0,0,0,0,0,0,0,0,0,0,0,0,0,0,0,0,0,0,0,0,0,0,0,0,0,0,0,0,0,0,0,0,0,0,0,0,0,0,0,0,0,0,-1.2762,-1.2762,0,-1.2747,-1.2747,-1.2747,-1.2688,-1.2686,-1.2685,-1.2684,-1.2669,-1.267,-1.2671,0,0,0,0,0,0,0,0,0,0,0,0,0,-1.2744,-1.2745,-1.2762,-1.2762,-1.2762,-1.2747,-1.2747,-1.2746,-1.2688,-1.2686,-1.2684,-1.2683,-1.2669,-1.267,-1.2671,0,0,0,0,0,0,0,0,0,0,0,0,0,-1.2743,-1.2745,-1.2763,-1.2731,-1.2728,-1.2747,-1.2747,-1.2746,-1.2688,-1.2686,-1.2684,-1.2682,-1.2669,-1.267,-1.2671,-1.272,0,0,-1.2675,-1.2676,0,0,0,0,0,0,0,0,-1.2743,-1.2744,-1.2736,-1.2733,-1.273,-1.2717,-1.2735,-1.2738,-1.2689,-1.2703,-1.2683,-1.2681,-1.2687,-1.2687,-1.2688,-1.2719,-1.2719,-1.2675,-1.2676,-1.2677,-1.2677,0,0,0,0,0,0,0,-1.2743,-1.2744,-1.2756,-1.2736,-1.2732,-1.2719,-1.2716,-1.2735,-1.2707,-1.2702,-1.2697,-1.2696,-1.2685,-1.2687,-1.2687,-1.2718,-1.2675,-1.2677,-1.2677,-1.2678,-1.2791,-1.2793,0,0,0,0,0,0,-1.2748,-1.2744,-1.2757,-1.2756,-1.2732,-1.272,-1.2718,-1.2723,-1.2706,-1.2702,-1.2698,-1.2694,-1.2686,-1.2686,-1.2687,-1.2744,-1.2677,-1.2678,-1.2679,-1.2789,-1.2791,-1.2794,0,0,0,0,0,0,-1.2747,-1.2749,-1.2757,-1.2749,-1.2749,-1.2723,-1.273,-1.2724,-1.2726,-1.2703,-1.2698,-1.2705,-1.2684,-1.2685,-1.2712,-1.2742,-1.2679,-1.268,-1.2786,-1.279,-1.2793,-1.2857,0,0,0,0,0,0,-1.2747,-1.2749,-1.2767,-1.275,-1.275,-1.2783,-1.2731,-1.2725,-1.2728,-1.2722,-1.2709,-1.2705,-1.2683,-1.2711,-1.2714,-1.2743,-1.2681,-1.2783,-1.2788,-1.2792,-1.2852,-1.2862,-1.2871,0,0,0,0,0,-1.2747,-1.2786,-1.2768,-1.277,-1.2771,-1.2784,-1.2784,-1.2758,-1.2731,-1.2749,-1.2735,-1.2705,-1.2739,-1.2714,-1.2717,-1.2747,-1.2781,-1.2786,-1.2791,-1.2848,-1.286,-1.2871,0,0,0,0,0,0,-1.2807,-1.2783,-1.2763,-1.2797,-1.2794,-1.2774,-1.2796,-1.2771,-1.2775,-1.2769,-1.2737,-1.2734,-1.2767,-1.276,-1.2733,-1.2794,-1.2755,-1.2761,-1.2798,-1.2809,-1.2818,-1.2819,-1.2682,0,0,0,0,0,-1.2824,-1.2836,-1.2815,-1.2848,-1.2847,-1.2822,-1.2827,-1.2807,-1.2802,-1.28,-1.2787,-1.2784,-1.2794,-1.2801,-1.2809,-1.2852,-1.2848,-1.2874,-1.2883,-1.2891,-1.2896,-1.292,-1.2931,-1.281,-1.281,-1.281,0,0,-1.286,-1.2848,-1.2858,-1.286,-1.2854,-1.2869,-1.2821,-1.2838,-1.2849,-1.2802,-1.2828,-1.2819,-1.2814,-1.2849,-1.2864,-1.2844,-1.2929,-1.2897,-1.2904,-1.2905,-1.2926,-1.2937,-1.2948,-1.2814,-1.2813,-1.2812,0,0,-1.2932,-1.2925,-1.2951,-1.2947,-1.294,-1.2923,-1.293,-1.2915,-1.2908,-1.2933,-1.2899,-1.2912,-1.2929,-1.2927,-1.2928,-1.3003,-1.2976,-1.3006,-1.3055,-1.3078,-1.3088,-1.3096,-1.3123,-1.3133,-1.3012,-1.3012,-1.3012,0,-1.2978,-1.2997,-1.2968,-1.2988,-1.299,-1.295,-1.2977,-1.2975,-1.2971,-1.2974,-1.2951,-1.2973,-1.2967,-1.3002,-1.302,-1.3023,-1.303,-1.3007,-1.3089,-1.3097,-1.3104,-1.313,-1.314,-1.3016,-1.3015,-1.3015,-1.3015,0,-1.3054,-1.3069,-1.3091,-1.3088,-1.3093,-1.3117,-1.3093,-1.3102,-1.3082,-1.3069,-1.3096,-1.3087,-1.3092,-1.31,-1.308,-1.3133,-1.3121,-1.3094,-1.3054,-1.312,-1.3143,-1.3153,-1.3021,-1.302,-1.3019,-1.3018,0,0,-1.3162,-1.3144,-1.3153,-1.3152,-1.3142,-1.3153,-1.3176,-1.3181,-1.319,-1.319,-1.3208,-1.3225,-1.3201,-1.3203,-1.3183,-1.3204,-1.3265,-1.3175,-1.3174,-1.3192,-1.3324,-1.3344,-1.3355,-1.3248,-1.3249,-1.3251,-1.3324,0,-1.3231,-1.3268,-1.3244,-1.3285,-1.3299,-1.3262,-1.3282,-1.3279,-1.3268,-1.3279,-1.3267,-1.3279,-1.3246,-1.3247,-1.3265,-1.3253,-1.3291,-1.3248,-1.3266,-1.3267,-1.3268,-1.3368,-1.3388,-1.3458,-1.3333,-1.3335,-1.3336,0,-1.3316,-1.332,-1.3362,-1.3351,-1.3356,-1.3374,-1.3379,-1.3389,-1.3386,-1.3376,-1.338,-1.3356,-1.3379,-1.334,-1.3372,-1.3344,-1.335,-1.3346,-1.3348,-1.3348,-1.3305,-1.3371,-1.3479,-1.349,-1.335,-1.3349,-1.3348,0,-1.3392,-1.3407,-1.3434,-1.3435,-1.3422,-1.3436,-1.3432,-1.3426,-1.3432,-1.3436,-1.344,-1.3447,-1.3451,-1.3458,-1.3437,-1.3411,-1.3473,-1.3432,-1.3466,-1.3467,-1.348,-1.348,-1.3592,-1.3485,-1.3485,-1.3485,-1.3484,0,-1.3471,-1.3499,-1.3468,-1.3485,-1.3516,-1.3489,-1.352,-1.3512,-1.3508,-1.3524,-1.3493,-1.3509,-1.348,-1.3494,-1.3478,-1.3508,-1.351,-1.3504,-1.3499,-1.3506,-1.3507,-1.351,-1.3504,-1.3487,-1.3487,-1.3486,-1.3486,0,-1.356,-1.354,-1.3568,-1.3555,-1.3552,-1.3575,-1.3564,-1.358,-1.3568,-1.3589,-1.3592,-1.3573,-1.3587,-1.3567,-1.358,-1.3569,-1.3611,-1.3599,-1.3612,-1.3608,-1.3644,-1.3641,-1.3761,-1.3776,-1.366,-1.3661,-1.3662,0,-1.3611,-1.3632,-1.3621,-1.3629,-1.3627,-1.364,-1.3646,-1.3621,-1.3629,-1.3628,-1.3645,-1.3656,-1.3664,-1.369,-1.3677,-1.3688,-1.3676,-1.3717,-1.3677,-1.3684,-1.3677,-1.3676,-1.3678,-1.3725,-1.3727,-1.3728,-1.3729,0,-1.3706,-1.3695,-1.3704,-1.3711,-1.3719,-1.3723,-1.3725,-1.3734,-1.3708,-1.3719,-1.3733,-1.374,-1.3753,-1.3766,-1.3773,-1.377,-1.3746,-1.3742,-1.375,-1.3758,-1.3764,-1.3762,-1.3634,-1.3739,-1.3738,-1.3737,-1.3737,-1.3736,-1.3777,-1.3794,-1.379,-1.3802,-1.3801,-1.3804,-1.3819,-1.3809,-1.382,-1.3828,-1.3814,-1.3832,-1.3831,-1.3838,-1.3838,-1.3853,-1.3835,-1.3847,-1.385,-1.3854,-1.3859,-1.3763,-1.3854,-1.3854,-1.3853,-1.3853,-1.3853,0,-1.387,-1.3866,-1.3877,-1.3881,-1.3891,-1.3868,-1.3869,-1.388,-1.3896,-1.3896,-1.3905,-1.3923,-1.3936,-1.3926,-1.3937,-1.3951,-1.3941,-1.3955,-1.3953,-1.3953,-1.3874,-1.3866,-1.3963,-1.3963,-1.3963,-1.3963,-1.3963,-1.3963,-1.3919,-1.3947,-1.3937,-1.3966,-1.3961,-1.3979,-1.3982,-1.3986,-1.3986,-1.4007,-1.4017,-1.401,-1.4007,-1.4018,-1.4029,-1.4026,-1.4032,-1.405,-1.4043,-1.397,-1.3959,-1.3948,-1.394,-1.4052,-1.4052,-1.4121,-1.4122,-1.4122]},{"header":{"parameterUnit":"m.s-1","parameterCategory":1,"la1":30.2991,"la2":30.254,"lo1":-89.0895,"lo2":-89.0444,"dy":0.0017,"dx":0.0017,"nx":28,"ny":28,"refTime":"2023-09-22T21:00:00:Z","depth":0,"parameterNumber":3,"parameterNumberName":"V-component_of_WINDS"},"data":[0,0,0,0,0,0,0,0,0,0,0,0,0,0,0,0,0,0,0,0,0,0,0,0,0,0,0,0,0,0,0,0,0,0,0,0,0,0,0,0,0,0,0,0,0,0,0,0,0,0,0,0,0,0,0,0,0,0,0.5805,0.5806,0,0.5891,0.5892,0.5893,0.5972,0.5973,0.5974,0.5975,0.6062,0.6063,0.6064,0,0,0,0,0,0,0,0,0,0,0,0,0,0.5707,0.5708,0.5805,0.5806,0.5807,0.5891,0.5892,0.5893,0.5972,0.5973,0.5974,0.5975,0.6061,0.6063,0.6064,0,0,0,0,0,0,0,0,0,0,0,0,0,0.5767,0.5709,0.5805,0.5857,0.5862,0.5891,0.5892,0.5894,0.5972,0.5973,0.5975,0.5976,0.6061,0.6063,0.6065,0.6049,0,0,0.6071,0.6072,0,0,0,0,0,0,0,0,0.5763,0.577,0.5848,0.5853,0.5859,0.5922,0.5889,0.5946,0.5971,0.593,0.5975,0.5977,0.6014,0.602,0.6033,0.6053,0.6057,0.6071,0.6073,0.6074,0.6074,0,0,0,0,0,0,0,0.5759,0.5767,0.5839,0.5849,0.5856,0.5875,0.5885,0.59,0.5963,0.5934,0.594,0.5949,0.6017,0.6031,0.6036,0.6058,0.6071,0.6073,0.6074,0.6075,0.6066,0.6065,0,0,0,0,0,0,0.5747,0.5763,0.5836,0.5842,0.5814,0.5875,0.5887,0.5901,0.5963,0.5974,0.5947,0.5952,0.6026,0.6033,0.6039,0.6022,0.6074,0.6076,0.6077,0.6068,0.6066,0.6065,0,0,0,0,0,0,0.5745,0.5753,0.5833,0.5804,0.5816,0.5876,0.5891,0.5902,0.5915,0.5973,0.5985,0.595,0.6028,0.6036,0.6045,0.6027,0.6076,0.6078,0.607,0.6067,0.6065,0.599,0,0,0,0,0,0,0.5742,0.5752,0.5747,0.5803,0.5817,0.5838,0.589,0.5902,0.5919,0.5926,0.5978,0.5989,0.603,0.6042,0.6047,0.603,0.608,0.6072,0.6069,0.6066,0.5994,0.5985,0.5978,0,0,0,0,0,0.5738,0.5722,0.5746,0.5755,0.5812,0.5837,0.5845,0.5893,0.5917,0.5912,0.5949,0.5987,0.6028,0.6042,0.6049,0.6032,0.6073,0.607,0.6066,0.5998,0.5987,0.5978,0,0,0,0,0,0,0.5662,0.5731,0.5758,0.5761,0.5792,0.585,0.5846,0.588,0.5905,0.5911,0.5969,0.598,0.5982,0.6009,0.6023,0.6019,0.6056,0.6053,0.6001,0.5991,0.5983,0.5976,0.6082,0,0,0,0,0,0.5646,0.5661,0.572,0.5716,0.5731,0.5785,0.5798,0.5832,0.5867,0.5881,0.5919,0.5951,0.5971,0.5983,0.6005,0.5999,0.6011,0.5991,0.5983,0.5976,0.5972,0.5969,0.596,0.6053,0.6053,0.6054,0,0,0.5612,0.5651,0.5657,0.5702,0.5731,0.5744,0.5796,0.5809,0.5818,0.5883,0.5893,0.5922,0.5962,0.5963,0.5965,0.5985,0.5949,0.5971,0.5965,0.5966,0.5965,0.5956,0.5948,0.6051,0.6052,0.6052,0,0,0.5557,0.5589,0.5588,0.5616,0.5658,0.5694,0.5694,0.5747,0.5768,0.578,0.5828,0.5841,0.5875,0.59,0.5917,0.587,0.5905,0.5876,0.5832,0.5828,0.582,0.5814,0.5795,0.5787,0.5873,0.5873,0.5873,0,0.5509,0.5531,0.5584,0.5592,0.561,0.5669,0.5668,0.5692,0.5739,0.5749,0.5771,0.5814,0.5845,0.5851,0.5839,0.5852,0.5852,0.5869,0.5817,0.5811,0.5806,0.5789,0.5781,0.5869,0.5869,0.587,0.587,0,0.5469,0.5484,0.5478,0.5522,0.5539,0.5543,0.5595,0.5606,0.5638,0.5671,0.5681,0.572,0.575,0.5755,0.5787,0.5765,0.5776,0.5807,0.5844,0.5792,0.5777,0.577,0.5863,0.5864,0.5866,0.5867,0,0,0.5368,0.544,0.5437,0.5457,0.5507,0.5519,0.5525,0.5554,0.5561,0.5592,0.5597,0.5624,0.5652,0.5672,0.5707,0.5704,0.5661,0.5735,0.5737,0.5718,0.5636,0.5611,0.5602,0.5685,0.5684,0.5683,0.5632,0,0.532,0.5334,0.538,0.538,0.5392,0.5448,0.5453,0.5484,0.5515,0.553,0.5565,0.5582,0.5619,0.5631,0.563,0.5666,0.5645,0.5671,0.5688,0.5688,0.5674,0.5595,0.5569,0.5519,0.5627,0.5626,0.5625,0,0.5265,0.5291,0.5291,0.534,0.5347,0.535,0.538,0.5394,0.543,0.5452,0.5473,0.5513,0.552,0.5557,0.5567,0.5583,0.5594,0.5612,0.5611,0.5613,0.5652,0.5592,0.5504,0.5496,0.5616,0.5617,0.5618,0,0.5188,0.5223,0.5228,0.5243,0.53,0.5301,0.5325,0.5362,0.5376,0.5402,0.5411,0.5437,0.5451,0.547,0.5515,0.5537,0.5519,0.556,0.5537,0.5535,0.5529,0.5528,0.5439,0.5539,0.5539,0.5539,0.5539,0,0.5127,0.5125,0.5193,0.5196,0.5194,0.5247,0.5244,0.5273,0.5305,0.5313,0.5364,0.5371,0.543,0.5443,0.5479,0.548,0.5487,0.5504,0.5513,0.5498,0.5496,0.5504,0.5508,0.5537,0.5538,0.5538,0.5538,0,0.504,0.5087,0.5094,0.5148,0.5161,0.5157,0.5202,0.5206,0.524,0.525,0.5255,0.5308,0.5326,0.5373,0.5403,0.5426,0.5417,0.5436,0.5405,0.541,0.5383,0.5384,0.5295,0.5285,0.5393,0.5392,0.5391,0,0.4998,0.4997,0.505,0.5058,0.508,0.5094,0.5108,0.5161,0.5173,0.5213,0.5211,0.5233,0.5253,0.5278,0.5319,0.5341,0.5359,0.5326,0.5363,0.5347,0.5356,0.5354,0.5353,0.5317,0.5316,0.5315,0.5314,0,0.4916,0.4938,0.4957,0.4983,0.4998,0.5021,0.5047,0.5051,0.511,0.5121,0.5139,0.5155,0.5185,0.5205,0.5233,0.5258,0.5294,0.5302,0.5298,0.5281,0.5262,0.527,0.538,0.5304,0.5305,0.5305,0.5306,0.5306,0.4848,0.4849,0.4886,0.4904,0.4929,0.4951,0.4957,0.4991,0.5007,0.5036,0.5066,0.508,0.5115,0.5157,0.5178,0.519,0.5209,0.5203,0.5201,0.5198,0.519,0.5262,0.5196,0.5196,0.5196,0.5197,0.5197,0,0.4767,0.4793,0.4809,0.4843,0.4857,0.4892,0.4922,0.493,0.4943,0.4972,0.499,0.501,0.5029,0.5071,0.5094,0.5095,0.5112,0.5099,0.5098,0.5103,0.5173,0.5173,0.5084,0.5084,0.5084,0.5085,0.5085,0.5085,0.4726,0.4728,0.4755,0.4769,0.4796,0.481,0.4824,0.4844,0.4868,0.4888,0.4904,0.4931,0.4965,0.4991,0.5009,0.5021,0.5026,0.5006,0.5023,0.5088,0.5098,0.5108,0.5109,0.5008,0.5008,0.4952,0.4951,0.4951]}]]